TimeEET,TemperatureF,Dew PointF,Humidity,Sea Level PressureIn,VisibilityMPH,Wind Direction,Wind SpeedMPH,Gust SpeedMPH,PrecipitationIn,Events,Conditions,WindDirDegrees,DateUTC
12:00 AM,62.6,23.0,22,29.83,-9999.0,North,5.8,-,N/A,,Clear,350,2014-02-01 22:00:00
1:00 AM,62.6,24.8,24,29.80,-9999.0,NNW,5.8,-,N/A,,Clear,340,2014-02-01 23:00:00
2:00 AM,60,24,15,29.79,6,North,3.5,,,,,0,2014-02-02 00:00:00
3:00 AM,59.0,24.8,27,29.83,-9999.0,North,4.6,-,N/A,,Clear,360,2014-02-02 01:00:00
4:00 AM,-9999,-9999,N/A,29.80,-9999.0,North,-9999.0,-,N/A,,Clear,0,2014-02-02 02:00:00
5:00 AM,59,24,15,29.78,6,North,4.6,,,,,0,2014-02-02 03:00:00
5:00 AM,59.0,26.6,29,29.77,-9999.0,North,4.6,-,N/A,,Clear,360,2014-02-02 03:00:00
6:00 AM,59.0,24.8,27,29.77,-9999.0,North,4.6,-,N/A,,Clear,10,2014-02-02 04:00:00
7:00 AM,59.0,23.0,25,29.77,-9999.0,NNE,3.5,-,N/A,,Clear,20,2014-02-02 05:00:00
8:00 AM,62,26,14,29.80,6,North,3.5,,,,,350,2014-02-02 06:00:00
8:00 AM,62.6,24.8,24,29.80,-9999.0,North,3.5,-,N/A,,Clear,350,2014-02-02 06:00:00
9:00 AM,66.2,26.6,23,29.77,-9999.0,NNE,3.5,-,N/A,,Clear,20,2014-02-02 07:00:00
10:00 AM,73.4,30.2,20,29.80,-9999.0,NW,8.1,-,N/A,,Clear,310,2014-02-02 08:00:00
11:00 AM,77,35,13,29.78,6,North,3.5,,,,,0,2014-02-02 09:00:00
11:00 AM,77.0,35.6,22,29.80,-9999.0,North,3.5,-,N/A,,Clear,360,2014-02-02 09:00:00
12:00 PM,80.6,39.2,23,29.80,-9999.0,WNW,3.5,-,N/A,,Clear,300,2014-02-02 10:00:00
1:00 PM,86.0,44.6,23,29.77,-9999.0,SW,6.9,-,N/A,,Clear,220,2014-02-02 11:00:00
2:00 PM,85,46,16,29.71,6,SSE,5.8,,,,,150,2014-02-02 12:00:00
2:00 PM,86.0,46.4,25,29.74,-9999.0,SSE,5.8,-,N/A,,Clear,150,2014-02-02 12:00:00
3:00 PM,84.2,44.6,25,29.74,-9999.0,ESE,9.2,-,N/A,,Clear,120,2014-02-02 13:00:00
4:00 PM,84.2,44.6,25,29.74,-9999.0,SE,10.4,-,N/A,,Clear,140,2014-02-02 14:00:00
5:00 PM,81,48,21,29.72,6,SE,11.5,,,,,140,2014-02-02 15:00:00
5:00 PM,80.6,48.2,32,29.74,-9999.0,SE,11.5,-,N/A,,Clear,140,2014-02-02 15:00:00
6:00 PM,78.8,48.2,34,29.74,-9999.0,SSE,8.1,-,N/A,,Clear,160,2014-02-02 16:00:00
7:00 PM,78.8,30.2,17,29.77,-9999.0,WNW,4.6,-,N/A,,Clear,300,2014-02-02 17:00:00
8:00 PM,76,17,5,29.78,6,WNW,10.4,,,,,290,2014-02-02 18:00:00
8:00 PM,75.2,17.6,11,29.80,-9999.0,WNW,10.4,-,N/A,,Clear,290,2014-02-02 18:00:00
9:00 PM,71.6,15.8,12,29.80,-9999.0,West,9.2,-,N/A,,Clear,280,2014-02-02 19:00:00
10:00 PM,71.6,19.4,14,29.80,-9999.0,West,9.2,-,N/A,,Clear,280,2014-02-02 20:00:00
11:00 PM,68,19,7,29.82,6,West,5.8,,,,,260,2014-02-02 21:00:00
11:00 PM,68.0,19.4,16,29.83,-9999.0,West,5.8,-,N/A,,Clear,260,2014-02-02 21:00:00